Home > Weather > Rodgau > Past weeks

Flag for Germany Past Weather in Rodgau, Hesse, Germany — Yesterday and Last 2 Weeks

Now
64 °F

Partly cloudy.


Feels Like: 64 °F
Forecast: 49 / 65 °F
Wind: 8 mph from South

Location: Frankfurt-M-Flughafen Airport

Current Time: Jul 2, 2016 at 6:04:34 AM

Latest Report: Jul 2, 2016 at 5:20 AM


Visibility: N/A

Pressure: 29.89 "Hg

Humidity: 88%

Dew Point: 61 °F

Location of RodgauLocation

Past Weather in Rodgau — Graph

°F

Rodgau Temperature Yesterday

Maximum temperature yesterday: 75 °F (at 2:50 PM)
Minimum temperature yesterday: 57 °F (at 3:50 AM)
Average temperature yesterday: 68 °F

High & Low Weather Summary for the Past Weeks

 TemperatureHumidityPressure
High93 °F (Jun 23, 4:50 PM)100% (Jun 17, 4:20 AM)30.27 "Hg (Jun 17, 4:20 AM)
Low45 °F (Jun 20, 4:50 AM)30% (Jun 23, 4:50 PM)29.59 "Hg (Jun 17, 4:20 AM)
Average66 °F75%30.04 "Hg
* Reported Jun 17 4:20 AM — Jul 2 4:50 AM, Rodgau, Weather by CustomWeather, © 2016

Note: Actual official high and low records may vary slightly from our data, if they occured in-between our weather recording intervals... More about our weather records

Advertising

Rodgau Weather History for the Previous 24 Hours

Scroll right to see more
 ConditionsComfort  
Time TempWeatherWind HumidityBarometerVisibility
4:50 AM
Sat, Jul 2
63 °FPassing clouds.3 mph94%29.89 "HgN/A
4:20 AM64 °FPassing clouds.3 mph88%29.89 "HgN/A
3:50 AM64 °FClear.5 mph88%29.89 "Hg10 mi
3:20 AM64 °FClear.6 mph88%29.89 "Hg10 mi
2:50 AM66 °FPassing clouds.3 mph88%29.89 "HgN/A
2:20 AM66 °FPassing clouds.5 mph83%29.89 "HgN/A
1:50 AM66 °FPassing clouds.3 mph83%29.92 "HgN/A
1:20 AM66 °FClear.2 mph83%29.92 "Hg10 mi
12:50 AM66 °FClear.2 mph88%29.92 "Hg10 mi
12:20 AM68 °FClear.3 mph78%29.92 "Hg10 mi
11:50 PM
Fri, Jul 1
68 °FClear.5 mph78%29.92 "Hg10 mi
11:20 PM68 °FClear.5 mph78%29.95 "Hg10 mi
10:50 PM68 °FClear.5 mph78%29.95 "Hg10 mi
10:20 PM68 °FSunny.2 mph78%29.95 "Hg10 mi
9:50 PM68 °FScattered clouds.3 mph78%29.95 "HgN/A
9:20 PM70 °FScattered clouds.2 mph73%29.95 "HgN/A
8:50 PM73 °FScattered clouds.5 mph61%29.95 "HgN/A
8:20 PM75 °FScattered clouds.9 mph54%29.95 "HgN/A
7:50 PM75 °FScattered clouds.9 mph54%29.95 "HgN/A
7:20 PM73 °FScattered clouds.10 mph57%29.95 "HgN/A
6:50 PM73 °FScattered clouds.9 mph57%29.98 "HgN/A
6:20 PM73 °FScattered clouds.12 mph57%29.98 "HgN/A
5:50 PM73 °FPartly sunny.15 mph57%29.98 "HgN/A
5:20 PM75 °FPartly sunny.14 mph54%29.98 "HgN/A
4:50 PM73 °FPartly sunny.14 mph57%29.98 "HgN/A
4:20 PM75 °FPartly sunny.18 mph57%29.98 "HgN/A
3:50 PM75 °FPartly sunny.18 mph57%29.98 "HgN/A
3:20 PM73 °FPartly sunny.15 mph57%30.01 "HgN/A
2:50 PM75 °FPartly sunny.15 mph54%29.98 "HgN/A
2:20 PM73 °FPartly sunny.18 mph57%30.01 "HgN/A
1:50 PM73 °FPartly sunny.16 mph57%30.01 "HgN/A
1:20 PM73 °FPartly sunny.18 mph57%30.01 "HgN/A
12:50 PM73 °FPartly sunny.17 mph53%30.01 "HgN/A
12:20 PM72 °FPartly sunny.18 mph61%30.01 "HgN/A
11:50 AM73 °FPartly sunny.13 mph61%30.01 "HgN/A
11:20 AM73 °FScattered clouds.15 mph61%30.01 "HgN/A
10:50 AM73 °FPassing clouds.13 mph65%30.01 "HgN/A
10:20 AM72 °FPassing clouds.13 mph69%30.01 "HgN/A
9:50 AM72 °FScattered clouds.13 mph65%30.01 "HgN/A
9:20 AM70 °FScattered clouds.12 mph73%30.01 "HgN/A
8:50 AM70 °FScattered clouds.10 mph73%30.01 "HgN/A
8:20 AM66 °FPassing clouds.6 mph78%30.01 "HgN/A
7:50 AM64 °FPassing clouds.6 mph83%30.01 "HgN/A
7:20 AM63 °FPassing clouds.6 mph83%30.01 "HgN/A
6:50 AM63 °FSunny.6 mph83%30.01 "Hg10 mi
6:20 AM61 °FSunny.6 mph88%30.01 "Hg10 mi
Weather by CustomWeather, © 2016

See weather overviewHow to use our weather pages